BEIJING 1

Last updated on Wed Sep 17 2025 00:02:37 GMT+0000 (Coordinated Universal Time)

1 28890U 05043A 25259.58568551 .00000321 00000+0 71717-4 0 9997 2 28890 98.2555 26.9446 0015729 60.5338 299.7431 14.63238301 60634
UTC large
Height (km)
Speed (km/s)
/
Latitude / Longitude
Inclination (degrees)
Orbital Period (minutes)
Azimuth
Elevation
Range (km)
Doppler Factor

Next 0 passes for location: London (51.5072 / 0.1276)

Sorry there are no passes over London.